Davenport, IA

1:28 PM CST on February 25, 2017 (GMT -0600)
Davenport Municipal

Weather History for KDVN - March, 2014

Change the Weather History Date:

Thursday, March 13, 2014

  Actual Average Record
Temperature  
Mean Temperature 34 °F 37 °F  
Max Temperature 48 °F 47 °F 75 °F (2007)
Min Temperature 21 °F 27 °F 8 °F (1975)
Degree Days  
Heating Degree Days 30 28  
Month to date heating degree days 402  
Since 1 July heating degree days 5427  
Cooling Degree Days 0 0  
Month to date cooling degree days 0  
Year to date cooling degree days 0  
Moisture  
Dew Point 27 °F    
Average Humidity 72    
Maximum Humidity 85    
Minimum Humidity 59    
Precipitation  
Precipitation 0.00 in 0.08 in 0.95 in (1972)
Month to date precipitation 0.96  
Year to date precipitation 3.49  
Snow  
Snow 0.00 in - - ()
Month to date snowfall  
Since 1 July snowfall  
Snow Depth -    
Sea Level Pressure  
Sea Level Pressure 30.00 in    
Wind  
Wind Speed 8 mph (SSW)    
Max Wind Speed 20 mph    
Max Gust Speed 23 mph    
Visibility 10 miles    
Events      
T = Trace of Precipitation, MM = Missing Value Source: NWS Daily Summary

Daily Weather History Graph

Daily Weather History Graph

Search for Another Location

Airport or City:

Trip Planner

Search our weather history database for the weather conditions in past years. The results will help you decide how hot, cold, wet, or windy it might be!

Date:

Astronomy

Mar. 13, 2014 Rise Set
Actual Time 7:17 AM CDT 7:06 PM CDT
Civil Twilight 6:49 AM CDT 7:34 PM CDT
Nautical Twilight 6:17 AM CDT 8:06 PM CDT
Astronomical Twilight 5:45 AM CDT 8:39 PM CDT
Moon 4:31 PM CDT (3/13) 5:26 AM CDT (3/13)
Length of Visible Light 12h 44m
Length of Day
11h 49m
Waxing Gibbous, 91% of the Moon is Illuminated
Mar 13
Waxing Gibbous
Mar 16
Full
Mar 23
Last Quarter
Mar 30
New
Apr 7
First Quarter

Hourly Weather History & Observations

Time (CDT) Temp. Windchill Dew Point Humidity Pressure Visibility Wind Dir Wind Speed Gust Speed Precip Events Conditions
12:52 AM 25.0 °F 18.1 °F 19.0 °F 78% 30.14 in 10.0 mi NW 5.8 mph - N/A   Clear
1:52 AM 24.1 °F 19.7 °F 18.0 °F 77% 30.14 in 10.0 mi NW 3.5 mph - N/A   Clear
2:52 AM 24.1 °F - 18.0 °F 77% 30.13 in 10.0 mi Calm Calm - N/A   Clear
3:52 AM 21.9 °F 17.2 °F 18.0 °F 85% 30.13 in 8.0 mi West 3.5 mph - N/A   Clear
4:52 AM 23.0 °F 17.0 °F 19.0 °F 85% 30.13 in 9.0 mi WSW 4.6 mph - N/A   Clear
5:52 AM 21.9 °F 15.7 °F 18.0 °F 85% 30.13 in 7.0 mi SW 4.6 mph - N/A   Clear
6:52 AM 23.0 °F 17.0 °F 18.0 °F 81% 30.11 in 9.0 mi South 4.6 mph - N/A   Overcast
7:52 AM 24.1 °F 16.0 °F 19.0 °F 81% 30.11 in 6.0 mi South 6.9 mph - N/A   Haze
8:52 AM 26.1 °F 16.8 °F 19.0 °F 75% 30.10 in 10.0 mi South 9.2 mph - N/A   Overcast
9:52 AM 28.0 °F 18.1 °F 19.9 °F 72% 30.09 in 10.0 mi South 11.5 mph - N/A   Overcast
10:52 AM 32.0 °F 21.2 °F 23.0 °F 69% 30.06 in 10.0 mi South 16.1 mph - N/A   Mostly Cloudy
11:52 AM 36.0 °F 25.6 °F 25.0 °F 64% 30.04 in 10.0 mi SSW 18.4 mph 23.0 mph N/A   Clear
12:52 PM 37.9 °F 27.9 °F 28.9 °F 70% 30.01 in 10.0 mi South 19.6 mph - N/A   Partly Cloudy
1:52 PM 42.1 °F 33.9 °F 30.0 °F 62% 29.97 in 10.0 mi SSW 17.3 mph - N/A   Clear
2:52 PM 45.0 °F 38.9 °F 33.1 °F 63% 29.94 in 10.0 mi SSW 12.7 mph - N/A   Clear
3:52 PM 46.9 °F - 33.1 °F 59% 29.93 in 10.0 mi SSW 16.1 mph - N/A   Clear
4:52 PM 48.0 °F - 35.1 °F 61% 29.91 in 10.0 mi SSW 11.5 mph - N/A   Clear
5:52 PM 48.9 °F - 35.1 °F 59% 29.89 in 10.0 mi SSW 12.7 mph - N/A   Clear
6:52 PM 46.9 °F - 36.0 °F 66% 29.88 in 10.0 mi South 12.7 mph - N/A   Clear
7:52 PM 44.1 °F 38.1 °F 36.0 °F 73% 29.87 in 10.0 mi South 11.5 mph - N/A   Clear
8:52 PM 44.1 °F 38.1 °F 36.0 °F 73% 29.86 in 10.0 mi South 11.5 mph - N/A   Clear
9:52 PM 44.1 °F 38.6 °F 35.1 °F 71% 29.85 in 10.0 mi SSW 10.4 mph - N/A   Clear
10:52 PM 41.0 °F 34.3 °F 34.0 °F 76% 29.83 in 10.0 mi South 11.5 mph - N/A   Clear
11:52 PM 41.0 °F 34.3 °F 33.1 °F 73% 29.81 in 10.0 mi South 11.5 mph - N/A   Clear